{"data":{"norad_id":48069,"intl_designator":"2021-025AD","name":"ONEWEB-0173","alt_names":[],"object_type":"PAYLOAD","status":"ACTIVE","operator":null,"country":"UK","launch_date":"2021-03-25","launch_site_code":"VOSTO","launch_vehicle":null,"mission":null,"orbit_class":"UNKNOWN","rcs_meters":null,"size_class":null,"mass_kg":null,"dimensions":null,"purposes":["comms"],"wikipedia_slug":null,"has_3d_model":false,"image_url":null,"decayed_at":null,"tle_current":{"epoch":"2026-05-24T23:24:33.862752Z","epoch_age_seconds":84059,"freshness":"FRESH","line1":"1 48069U 21025AD  26144.97539193 -.00000097  00000+0 -30087-3 0  9998","line2":"2 48069  87.8945 324.8463 0001473 100.4260 259.7035 13.13468592250750","mean_motion":13.13468592,"eccentricity":0.0001473,"inclination_deg":87.8945,"raan_deg":324.8463,"arg_perigee_deg":100.426,"mean_anomaly_deg":259.7035,"bstar":-0.00030087,"rev_number":25075,"period_min":109.63337903705,"perigee_km":1208.6531237503,"apogee_km":1210.8885213948,"semimajor_km":7587.9078225726,"source":"CELESTRAK","updated_at":"2026-05-25T13:38:22.393410Z"}}}